Crossville, TN

3:31 PM CDT on April 28, 2017 (GMT -0500)
Crossville Memorial-Whitson

Weather History for KCSV - December, 2013

Change the Weather History Date:

Friday, December 6, 2013

  Actual Average Record
Temperature  
Mean Temperature 38 °F 41 °F  
Max Temperature 44 °F 49 °F 70 °F (1998)
Min Temperature 32 °F 32 °F 7 °F (1977)
Degree Days  
Heating Degree Days 27    
Month to date heating degree days  
Since 1 July heating degree days  
Cooling Degree Days 0    
Month to date cooling degree days  
Year to date cooling degree days  
Moisture  
Dew Point 36 °F    
Average Humidity 93    
Maximum Humidity 100    
Minimum Humidity 87    
Precipitation  
Precipitation 1.55 in 0.18 in 1.95 in (2016)
Month to date precipitation 1.06  
Year to date precipitation 51.20  
Sea Level Pressure  
Sea Level Pressure 30.04 in    
Wind  
Wind Speed 8 mph (NNE)    
Max Wind Speed 16 mph    
Max Gust Speed 22 mph    
Visibility 4 miles    
Events Rain , Thunderstorm    
T = Trace of Precipitation, MM = Missing Value Source: NWS Daily Summary

Daily Weather History Graph

Daily Weather History Graph

Search for Another Location

Airport or City:

Trip Planner

Search our weather history database for the weather conditions in past years. The results will help you decide how hot, cold, wet, or windy it might be!

Date:

Astronomy

Dec. 06, 2013 Rise Set
Actual Time 6:36 AM CST 4:26 PM CST
Civil Twilight 6:08 AM CST 4:54 PM CST
Nautical Twilight 5:36 AM CST 5:26 PM CST
Astronomical Twilight 5:05 AM CST 5:57 PM CST
Moon 9:46 AM CST (12/6) 8:51 PM CST (12/6)
Length of Visible Light 10h 45m
Length of Day
9h 49m
Waxing Crescent, 19% of the Moon is Illuminated
Dec 6
Waxing Crescent
Dec 9
First Quarter
Dec 17
Full
Dec 25
Last Quarter
Jan 1
New

Hourly Weather History & Observations

Time (CST) Temp. Windchill Dew Point Humidity Pressure Visibility Wind Dir Wind Speed Gust Speed Precip Events Conditions
12:53 AM 44.1 °F 41.5 °F 42.1 °F 93% 29.98 in 5.0 mi NE 4.6 mph - 0.01 in   Overcast
1:35 AM 42.8 °F 38.0 °F 42.8 °F 100% 30.00 in 2.0 mi NNE 8.1 mph - 0.01 in   Overcast
1:53 AM 43.0 °F 38.8 °F 42.1 °F 97% 29.98 in 2.5 mi North 6.9 mph - 0.01 in   Overcast
2:06 AM 42.8 °F 39.3 °F 41.0 °F 93% 30.00 in 3.0 mi NNE 5.8 mph - N/A   Overcast
2:53 AM 42.1 °F 36.6 °F 39.9 °F 92% 29.95 in 3.0 mi NNE 9.2 mph - N/A   Overcast
3:05 AM 42.8 °F 38.0 °F 39.2 °F 87% 29.97 in 2.5 mi NE 8.1 mph - N/A   Overcast
3:27 AM 41.0 °F 33.9 °F 39.2 °F 93% 29.98 in 3.0 mi North 12.7 mph - 0.01 in Rain , Thunderstorm Light Rain
3:48 AM 41.0 °F 34.7 °F 39.2 °F 93% 30.02 in 5.0 mi NNW 10.4 mph 17.3 mph 0.03 in Rain Light Rain
3:53 AM 41.0 °F 34.3 °F 39.0 °F 93% 29.99 in 5.0 mi North 11.5 mph 18.4 mph 0.03 in Rain Light Rain
4:04 AM 41.0 °F 33.9 °F 39.2 °F 93% 29.98 in 9.0 mi North 12.7 mph 16.1 mph 0.00 in   Overcast
4:12 AM 39.2 °F 33.6 °F 37.4 °F 93% 29.99 in 3.0 mi North 8.1 mph 19.6 mph 0.06 in Rain , Thunderstorm Heavy Rain
4:17 AM 39.2 °F 30.8 °F 37.4 °F 93% 30.04 in 2.0 mi NW 15.0 mph 18.4 mph 0.09 in Rain , Thunderstorm Rain
4:22 AM 39.2 °F 30.5 °F 37.4 °F 93% 30.05 in 1.8 mi NW 16.1 mph 21.9 mph 0.14 in Rain , Thunderstorm Heavy Rain
4:30 AM 39.2 °F 35.0 °F 37.4 °F 93% 30.07 in 1.8 mi NNW 5.8 mph 21.9 mph 0.18 in Rain , Thunderstorm Heavy Rain
4:36 AM 39.2 °F 34.2 °F 37.4 °F 93% 30.05 in 3.0 mi North 6.9 mph - 0.18 in Rain Light Rain
4:51 AM 39.2 °F 35.0 °F 37.4 °F 93% 30.04 in 9.0 mi NE 5.8 mph - 0.18 in   Overcast
4:53 AM 39.0 °F 34.0 °F 37.0 °F 93% 30.02 in 8.0 mi NNE 6.9 mph - 0.19 in Rain Light Rain
5:27 AM 39.2 °F 33.0 °F 37.4 °F 93% 30.03 in 9.0 mi NNE 9.2 mph - 0.03 in   Overcast
5:53 AM 39.0 °F 31.8 °F 37.0 °F 93% 30.00 in 4.0 mi NE 11.5 mph - 0.08 in Rain Light Rain
6:07 AM 37.4 °F 30.3 °F 37.4 °F 100% 30.01 in 4.0 mi NE 10.4 mph - 0.04 in Rain Light Rain
6:16 AM 37.4 °F 30.8 °F 35.6 °F 93% 30.02 in 5.0 mi NE 9.2 mph - 0.06 in Rain Rain
6:25 AM 37.4 °F 31.4 °F 35.6 °F 93% 30.02 in 7.0 mi NNE 8.1 mph - 0.06 in Rain Light Rain
6:32 AM 37.4 °F 32.1 °F 35.6 °F 93% 30.02 in 8.0 mi NE 6.9 mph - 0.06 in Rain Light Rain
6:44 AM 37.4 °F 32.1 °F 35.6 °F 93% 30.02 in 3.0 mi NE 6.9 mph - 0.09 in Rain Rain
6:53 AM 37.9 °F 32.7 °F 36.0 °F 93% 30.03 in 3.0 mi NNE 6.9 mph - 0.10 in Rain Light Rain
7:22 AM 37.4 °F 34.9 °F 37.4 °F 100% 30.02 in 2.5 mi East 3.5 mph - 0.03 in Rain Light Rain
7:30 AM 37.4 °F 32.8 °F 35.6 °F 93% 30.02 in 6.0 mi ENE 5.8 mph - 0.03 in Rain Light Rain
7:50 AM 39.2 °F 35.0 °F 37.4 °F 93% 30.02 in 6.0 mi ENE 5.8 mph - 0.04 in   Overcast
7:53 AM 39.0 °F 34.8 °F 37.0 °F 93% 30.02 in 6.0 mi NE 5.8 mph - 0.04 in   Overcast
8:27 AM 39.2 °F 35.9 °F 37.4 °F 93% 30.03 in 2.0 mi ENE 4.6 mph - 0.02 in Rain Light Rain
8:40 AM 39.2 °F 37.0 °F 37.4 °F 93% 30.03 in 3.0 mi NNE 3.5 mph - 0.03 in Rain Light Rain
8:50 AM 39.2 °F 37.0 °F 37.4 °F 93% 30.03 in 2.5 mi North 3.5 mph - 0.04 in Rain Light Rain
8:53 AM 39.0 °F 35.7 °F 37.0 °F 93% 30.04 in 2.5 mi North 4.6 mph - 0.04 in Rain Light Rain
8:59 AM 39.2 °F 35.0 °F 37.4 °F 93% 30.03 in 3.0 mi North 5.8 mph - 0.00 in Rain Light Rain
9:13 AM 39.2 °F 35.9 °F 37.4 °F 93% 30.04 in 2.5 mi NNE 4.6 mph - 0.02 in Rain Light Rain
9:38 AM 39.2 °F 35.0 °F 37.4 °F 93% 30.05 in 4.0 mi North 5.8 mph - 0.05 in Rain Light Rain
9:53 AM 39.9 °F 35.1 °F 37.9 °F 93% 30.05 in 6.0 mi North 6.9 mph - 0.05 in   Overcast
10:16 AM 39.2 °F 34.2 °F 37.4 °F 93% 30.03 in 2.0 mi NE 6.9 mph - 0.01 in Rain Light Rain
10:27 AM 39.2 °F 35.0 °F 37.4 °F 93% 30.03 in 3.0 mi NNE 5.8 mph - 0.01 in   Overcast
10:45 AM 39.2 °F 35.0 °F 37.4 °F 93% 30.02 in 1.8 mi NNE 5.8 mph - 0.03 in Rain Rain
10:53 AM 39.9 °F 35.8 °F 37.9 °F 93% 30.03 in 2.0 mi NNE 5.8 mph - 0.03 in Rain Light Rain
11:30 AM 39.2 °F 37.0 °F 37.4 °F 93% 30.01 in 1.5 mi Variable 3.5 mph - 0.08 in Rain Rain
11:38 AM 39.2 °F 35.0 °F 37.4 °F 93% 30.00 in 3.0 mi NNE 5.8 mph - 0.08 in Rain Light Rain
11:53 AM 39.0 °F 34.8 °F 37.9 °F 96% 29.99 in 4.0 mi ENE 5.8 mph - 0.09 in Rain Light Rain
12:16 PM 39.2 °F 35.0 °F 37.4 °F 93% 29.98 in 2.5 mi North 5.8 mph - 0.03 in Rain Light Rain
12:24 PM 39.2 °F 34.2 °F 37.4 °F 93% 29.99 in 4.0 mi North 6.9 mph - 0.04 in Rain Light Rain
12:53 PM 39.0 °F 33.4 °F 37.0 °F 93% 30.02 in 2.5 mi NW 8.1 mph - 0.07 in Rain Light Rain
1:02 PM 39.2 °F 34.2 °F 37.4 °F 93% 30.00 in 1.5 mi North 6.9 mph - 0.03 in Rain Rain
1:11 PM 39.2 °F 35.9 °F 37.4 °F 93% 29.99 in 3.0 mi Variable 4.6 mph - 0.04 in Rain Light Rain
1:20 PM 39.2 °F 34.2 °F 37.4 °F 93% 29.98 in 2.5 mi NNE 6.9 mph - 0.06 in Rain Light Rain
1:29 PM 39.2 °F - 35.6 °F 87% 29.99 in 7.0 mi Calm Calm - 0.06 in Rain Light Rain
1:47 PM 39.2 °F 35.9 °F 35.6 °F 87% 29.98 in 2.5 mi NE 4.6 mph - 0.08 in Rain , Thunderstorm Rain
1:53 PM 39.0 °F 34.8 °F 36.0 °F 89% 29.99 in 1.8 mi NE 5.8 mph - 0.10 in Rain , Thunderstorm Rain
2:00 PM 39.2 °F 34.2 °F 35.6 °F 87% 29.98 in 3.0 mi NE 6.9 mph - 0.00 in Rain , Thunderstorm Light Rain
2:06 PM 37.4 °F 32.1 °F 35.6 °F 93% 29.98 in 1.8 mi North 6.9 mph - 0.06 in Rain Heavy Rain
2:13 PM 37.4 °F 32.1 °F 35.6 °F 93% 30.02 in 1.0 mi NNW 6.9 mph - 0.10 in Rain Heavy Rain
2:23 PM 37.4 °F 30.3 °F 35.6 °F 93% 30.02 in 2.0 mi NNW 10.4 mph - 0.12 in Rain Rain
2:30 PM 37.4 °F 31.4 °F 35.6 °F 93% 30.02 in 4.0 mi NNW 8.1 mph - 0.12 in Rain Light Rain
2:53 PM 37.0 °F 30.4 °F 35.1 °F 93% 30.04 in 5.0 mi North 9.2 mph - 0.13 in   Overcast
3:18 PM 35.6 °F 29.2 °F 33.8 °F 93% 30.08 in 1.8 mi NNW 8.1 mph 20.7 mph 0.05 in Rain Heavy Rain
3:25 PM 35.6 °F 29.2 °F 33.8 °F 93% 30.07 in 1.0 mi NNW 8.1 mph - 0.09 in Rain Heavy Rain
3:38 PM 35.6 °F 29.2 °F 33.8 °F 93% 30.05 in 3.0 mi NNE 8.1 mph - 0.12 in Rain Light Rain
3:53 PM 36.0 °F 29.6 °F 33.1 °F 89% 30.07 in 4.0 mi North 8.1 mph - 0.12 in   Overcast
4:03 PM 35.6 °F 29.2 °F 33.8 °F 93% 30.07 in 2.0 mi North 8.1 mph - 0.06 in Rain , Thunderstorm Heavy Thunderstorms and Rain
4:15 PM 35.6 °F 29.9 °F 33.8 °F 93% 30.07 in 3.0 mi North 6.9 mph - 0.10 in Rain , Thunderstorm Heavy Thunderstorms and Rain
4:20 PM 35.6 °F 30.7 °F 33.8 °F 93% 30.08 in 2.0 mi North 5.8 mph - 0.12 in Rain Heavy Rain
4:38 PM 35.6 °F 28.6 °F 33.8 °F 93% 30.06 in 3.0 mi NNE 9.2 mph - 0.22 in Rain Heavy Rain
4:53 PM 35.1 °F 28.6 °F 33.1 °F 92% 30.09 in 4.0 mi NE 8.1 mph - 0.25 in Rain Rain
5:09 PM 35.6 °F 28.0 °F 32.0 °F 87% 30.08 in 7.0 mi North 10.4 mph - 0.02 in Rain Light Rain
5:17 PM 35.6 °F 29.2 °F 33.8 °F 93% 30.10 in 3.0 mi NNW 8.1 mph - 0.06 in Rain , Thunderstorm Rain
5:21 PM 35.6 °F 28.0 °F 33.8 °F 93% 30.10 in 2.5 mi NNW 10.4 mph - 0.09 in Rain , Thunderstorm Heavy Rain
5:28 PM 33.8 °F 24.8 °F 32.0 °F 93% 30.09 in 3.0 mi NNW 12.7 mph - 0.11 in Rain Rain
5:53 PM 34.0 °F 26.0 °F 32.0 °F 92% 30.15 in 10.0 mi NNW 10.4 mph - 0.12 in   Overcast
6:53 PM 34.0 °F 27.2 °F 30.9 °F 89% 30.14 in 10.0 mi North 8.1 mph - 0.07 in   Overcast
7:53 PM 33.1 °F 24.9 °F 30.9 °F 92% 30.17 in 10.0 mi NNE 10.4 mph - 0.01 in   Overcast
8:53 PM 33.1 °F 26.1 °F 32.0 °F 96% 30.19 in 10.0 mi NNE 8.1 mph - 0.01 in   Overcast
9:53 PM 34.0 °F 26.6 °F 30.9 °F 89% 30.24 in 10.0 mi North 9.2 mph 17.3 mph N/A   Overcast
10:53 PM 33.1 °F 25.5 °F 30.9 °F 92% 30.24 in 10.0 mi North 9.2 mph 18.4 mph N/A   Overcast
11:19 PM 32.0 °F 24.8 °F 30.2 °F 93% 30.22 in 7.0 mi North 8.1 mph 17.3 mph N/A   Overcast
11:53 PM 32.0 °F 23.6 °F 30.9 °F 96% 30.27 in 5.0 mi North 10.4 mph - N/A   Overcast